{"data":{"norad_id":65324,"epoch":"2026-05-25T04:13:33.303360Z","epoch_age_seconds":59711,"freshness":"FRESH","line1":"1 65324U 25189B   26145.17607990  .00019644  00000+0  64272-3 0  9999","line2":"2 65324  53.1598 211.0159 0001196  80.4220 279.6916 15.31719270 42771","mean_motion":15.3171927,"eccentricity":0.0001196,"inclination_deg":53.1598,"raan_deg":211.0159,"arg_perigee_deg":80.422,"mean_anomaly_deg":279.6916,"bstar":0.00064272,"rev_number":4277,"period_min":94.012005215551,"perigee_km":469.86343414207,"apogee_km":471.50167177914,"semimajor_km":6848.8195529606,"source":"CELESTRAK","updated_at":"2026-05-25T13:38:20.758030Z"}}